TimeCST,TemperatureF,Dew PointF,Humidity,Sea Level PressureIn,VisibilityMPH,Wind Direction,Wind SpeedMPH,Gust SpeedMPH,PrecipitationIn,Events,Conditions,WindDirDegrees,DateUTC
12:53 AM,16.0,12.0,84,30.10,9.0,ENE,6.9,-,N/A,,Overcast,60,2013-12-16 06:53:00
1:53 AM,16.0,12.0,84,30.10,9.0,ENE,6.9,-,N/A,,Overcast,70,2013-12-16 07:53:00
2:53 AM,15.1,12.0,88,30.12,9.0,ENE,5.8,-,N/A,,Mostly Cloudy,60,2013-12-16 08:53:00
3:21 AM,15.8,10.4,79,30.07,9.0,ENE,5.8,-,N/A,,Mostly Cloudy,60,2013-12-16 09:21:00
3:38 AM,14.0,10.4,86,30.06,9.0,East,4.6,-,N/A,,Scattered Clouds,90,2013-12-16 09:38:00
3:53 AM,14.0,10.0,84,30.09,9.0,ENE,5.8,-,N/A,,Clear,70,2013-12-16 09:53:00
4:53 AM,12.9,9.0,84,30.11,9.0,NE,6.9,-,N/A,,Clear,50,2013-12-16 10:53:00
5:53 AM,14.0,10.0,84,30.10,9.0,ENE,6.9,-,N/A,,Overcast,70,2013-12-16 11:53:00
6:53 AM,15.1,10.9,84,30.13,10.0,ENE,3.5,-,N/A,,Overcast,70,2013-12-16 12:53:00
7:53 AM,15.1,10.9,84,30.11,9.0,East,8.1,-,N/A,,Overcast,80,2013-12-16 13:53:00
8:43 AM,15.8,10.4,79,30.07,8.0,East,6.9,-,N/A,,Overcast,100,2013-12-16 14:43:00
8:53 AM,15.1,10.9,84,30.13,8.0,East,4.6,-,N/A,,Overcast,100,2013-12-16 14:53:00
9:05 AM,15.8,10.4,79,30.09,8.0,ESE,5.8,-,N/A,,Overcast,110,2013-12-16 15:05:00
9:53 AM,16.0,12.0,84,30.13,9.0,East,6.9,-,N/A,,Overcast,100,2013-12-16 15:53:00
10:05 AM,15.8,12.2,86,30.09,9.0,ESE,6.9,-,N/A,,Overcast,110,2013-12-16 16:05:00
10:53 AM,17.1,12.9,84,30.11,7.0,SE,3.5,-,N/A,,Overcast,140,2013-12-16 16:53:00
11:53 AM,18.0,14.0,84,30.08,6.0,SE,5.8,-,N/A,,Overcast,130,2013-12-16 17:53:00
12:53 PM,19.0,15.1,85,30.06,5.0,SE,4.6,-,N/A,,Overcast,140,2013-12-16 18:53:00
1:53 PM,19.9,18.0,92,30.04,4.0,South,6.9,-,N/A,,Overcast,180,2013-12-16 19:53:00
2:53 PM,19.9,18.0,92,30.03,3.0,South,4.6,-,N/A,,Overcast,190,2013-12-16 20:53:00
3:48 PM,21.2,19.4,93,30.01,2.5,WSW,6.9,-,N/A,,Overcast,250,2013-12-16 21:48:00
3:53 PM,19.9,19.0,96,30.05,2.0,WSW,6.9,-,N/A,,Overcast,240,2013-12-16 21:53:00
4:02 PM,19.4,19.4,100,30.01,1.8,WSW,6.9,-,N/A,,Overcast,250,2013-12-16 22:02:00
4:23 PM,21.2,19.4,93,30.03,2.0,WNW,4.6,-,N/A,,Overcast,290,2013-12-16 22:23:00
4:53 PM,21.0,19.9,96,30.09,3.0,WNW,3.5,-,N/A,,Overcast,300,2013-12-16 22:53:00
5:16 PM,21.2,19.4,93,30.05,3.0,NW,3.5,-,N/A,,Overcast,310,2013-12-16 23:16:00
5:53 PM,21.9,19.0,89,30.10,3.0,WNW,5.8,-,N/A,,Overcast,300,2013-12-16 23:53:00
6:53 PM,21.9,21.0,96,30.10,3.0,NW,4.6,-,N/A,,Overcast,310,2013-12-17 00:53:00
7:53 PM,23.0,21.0,92,30.10,3.0,Calm,Calm,-,N/A,,Overcast,0,2013-12-17 01:53:00
8:53 PM,24.1,21.0,88,30.12,4.0,West,5.8,-,N/A,,Overcast,280,2013-12-17 02:53:00
9:53 PM,24.1,21.0,88,30.13,5.0,NW,9.2,-,N/A,,Overcast,320,2013-12-17 03:53:00
10:53 PM,24.1,21.0,88,30.14,5.0,West,4.6,-,N/A,,Overcast,280,2013-12-17 04:53:00
11:53 PM,24.1,21.9,91,30.17,5.0,WNW,4.6,-,N/A,,Overcast,300,2013-12-17 05:53:00